Location: Platte
(43.3870°N, 98.8440°W)
Time: 00:47:21
(UTC-05:00)

Landsat 7 - Visible Passes

Search period start: 19 September 2014 00:00
Search period end: 29 September 2014 00:00
Orbit: 702 x 703 km, 98.2° (Epoch: 18 September)

Date Brightness Start Highest point End Pass type
(mag) Time Alt. Az. Time Alt. Az. Time Alt. Az.
19 Sep 5.9 22:17:52 17° NNE 22:17:52 17° NNE 22:19:19 10° N visible
19 Sep 6.7 23:56:45 14° NNW 23:56:45 14° NNW 23:57:25 10° NNW visible
20 Sep 6.1 23:01:16 19° N 23:01:16 19° N 23:02:40 10° N visible
21 Sep 6.1 22:05:46 14° NNE 22:05:46 14° NNE 22:06:46 10° NNE visible
21 Sep 6.6 23:44:39 14° NNW 23:44:39 14° NNW 23:45:22 10° NNW visible
22 Sep 6.1 22:49:10 18° N 22:49:10 18° N 22:50:22 10° N visible
23 Sep 6.2 21:53:40 11° NNE 21:53:40 11° NNE 21:54:05 10° NNE visible
23 Sep 6.6 23:32:33 14° NNW 23:32:33 14° NNW 23:33:15 10° NNW visible
24 Sep 6.2 22:37:03 15° N 22:37:03 15° N 22:38:01 10° N visible
25 Sep 6.6 23:20:27 14° NNW 23:20:27 14° NNW 23:21:04 10° NNW visible
26 Sep 6.3 22:24:57 13° NNE 22:24:57 13° NNE 22:25:36 10° N visible
27 Sep 6.6 23:08:21 13° N 23:08:21 13° N 23:08:51 10° N visible
28 Sep 6.4 22:12:50 11° NNE 22:12:50 11° NNE 22:13:06 10° NNE visible
